Regional Weather Roundup
Issued by NWS

Home | Current Version | Previous Version | Graphics & Text | Print | Product List | Glossary On
Versions: 1 2 3 4 5 6 7 8 9 10 11 12 13 14 15 16 17 18 19 20 21 22 23 24 25 26 27 28 29 30 31 32 33 34 35 36 37 38 39 40 41 42 43 44 45 46 47 48 49 50
000
ASUS43 KMPX 181801
RWRMN
WEATHER ROUNDUP FOR MINNESOTA
NATIONAL WEATHER SERVICE TWIN CITIES/CHANHASSEN MN
1200 PM CST SAT FEB 18 2017


NOTE: "FAIR" INDICATES FEW OR NO CLOUDS BELOW 12,000 FEET WITH NO
SIGNIFICANT WEATHER AND/OR OBSTRUCTIONS TO VISIBILITY. N/A MEANS
CURRENT SKY AND/OR WEATHER CONDITIONS ARE NOT AVAILABLE.

MNZ060>063-068>070-181900-
   Twin Cities Metro

CITY           SKY/WX    TMP DP  RH WIND       PRES   REMARKS
TWIN CITIES    PTSUNNY   53  34  48 CALM      29.78R
6HR MIN TEMP:  34; 6HR MAX TEMP:  54;

ST PAUL        SUNNY     53  35  50 NW5       29.78R
CRYSTAL        MOSUNNY   50  33  52 VRB3      29.77R
BLAINE         PTSUNNY   52  36  54 W3        29.77R
LAKEVILLE      SUNNY     50  36  57 W3        29.78R
EDEN PRAIRIE   MOSUNNY   52  35  52 VRB3      29.77R
6HR MIN TEMP:  32; 6HR MAX TEMP:  52;

SOUTH ST PAUL  SUNNY     51  34  51 W5        29.77S
LAKE ELMO      FAIR      50  36  57 W5        29.78R
$$
MNZ001>005-007-008-013>017-022>024-027-028-181900-
   Northwest Minnesota

CITY           SKY/WX    TMP DP  RH WIND       PRES   REMARKS
BEMIDJI        SUNNY     44  32  62 W14       29.70R
HALLOCK        SUNNY     39  34  81 NW12      29.69R
ROSEAU         SUNNY     41  34  75 W8G18     29.65R
WARROAD        SUNNY     41  34  75 W12G17    29.63S
THIEF RVR FALL SUNNY     38  32  79 W8        29.72R
CROOKSTON      SUNNY     39  36  87 SW7       29.74R
FOSSTON        SUNNY     39  36  87 SW9       29.73S
DETROIT LAKES  SUNNY     41  34  75 SW6       29.77R
MOORHEAD       PTSUNNY   39  36  87 S6        29.78R
PARK RAPIDS    SUNNY     42  31  64 W6        29.72S
MAHNOMEN       FAIR      39  35  83 S10       29.74S
$$
MNZ006-009>011-018-025>026-181900-
   North Central Minnesota

CITY           SKY/WX    TMP DP  RH WIND       PRES   REMARKS
BAUDETTE       SUNNY     45  32  60 W9        29.61R
FLAG ISLAND    SUNNY     45  32  61 W15       29.59R
INTL FALLS     SUNNY     45  32  60 W14       29.60S
6HR MIN TEMP:  33; 6HR MAX TEMP:  46;

WASKISH        SUNNY     45  34  65 SW13      29.66R
BIG FORK       SUNNY     48  34  57 W7        29.64S
LONGVILLE      SUNNY     48  32  53 SW9       29.71R
GRAND RAPIDS   SUNNY     48  33  56 NW8       29.69S
CRANE LAKE     SUNNY     46  32  57 W6        29.62S
ORR            SUNNY     46  30  53 W8        29.60R
COOK           SUNNY     46  34  61 W9        29.63S
WALKER         FAIR      50  31  47 W13       29.70S
$$
MNZ012-019>021-037-181900-
   Northeast Minnesota

CITY           SKY/WX    TMP DP  RH WIND       PRES   REMARKS
DULUTH         SUNNY     47  32  56 NW17G25   29.65S
6HR MIN TEMP:  36; 6HR MAX TEMP:  47;

ELY            SUNNY     45  32  61 W14       29.61S
HIBBING        SUNNY     47  32  56 W10       29.65S
EVELETH        SUNNY     45  32  59 W14       29.65S
DULUTH HARBOR  SUNNY     48  36  61 W10       29.67S
TWO HARBORS    SUNNY     54  37  54 W7G20     29.61S
GRAND MARAIS     N/A     54  33  45 W13       29.55R
G MARAIS ARPRT SUNNY     46  28  49 W10G20    29.55R
$$
MNZ029>031-032-039>041-046>048-054>057-064-181900-
   West Central Minnesota

CITY           SKY/WX    TMP DP  RH WIND       PRES   REMARKS
FERGUS FALLS   SUNNY     45  37  76 W5        29.81F
WHEATON        SUNNY     52  36  54 CALM      29.79F
MORRIS         SUNNY     50  39  66 W3        29.78S
ALEXANDRIA     SUNNY     46  37  71 W7        29.78S
ELBOW LAKE     FAIR      45  38  76 NW6       29.78F
WADENA         CLOUDY    43  34  70 W8        29.75F
GLENWOOD       SUNNY     46  39  76 W6        29.79S
APPLETON       SUNNY     50  39  66 CALM      29.79S
BENSON         CLOUDY    54  34  47 NW5       29.80F
ORTONVILLE     SUNNY     54  36  50 CALM      29.78S
WILLMAR        FAIR      45  39  81 CALM      29.80R
$$
MNZ033>034-036-042>043-049>051-058-059-181900-
   Central Minnesota

CITY           SKY/WX    TMP DP  RH WIND       PRES   REMARKS
ST CLOUD       MOSUNNY   50  36  58 W7        29.76S
6HR MIN TEMP:  29; 6HR MAX TEMP:  50;

SAUK CENTRE    FAIR      46  38  76 W8        29.78S
PAYNESVILLE    MOSUNNY   45  38  77 W6        29.78F
AITKIN         SUNNY     50  30  46 SW9       29.71S
PINE RIVER     SUNNY     46  34  61 W7        29.76S
BRAINERD       SUNNY     47  34  60 W8        29.74S
STAPLES        SUNNY     45  36  70 NW6       29.75S
LONG PRAIRIE   FAIR      46  36  66 SW6       29.77S
LITTLE FALLS   SUNNY     50  34  53 W6        29.76S
LITCHFIELD     PTSUNNY   46  39  76 W5        29.79S
BUFFALO        MOSUNNY   48  36  63 W3        29.79S
MAPLE LAKE     MOSUNNY   48  38  67 W3        29.79R
HUTCHINSON     SUNNY     49  40  69 NW3       29.80S
$$
MNZ037-044-045-052-053-181900-
   East Central Minnesota

CITY           SKY/WX    TMP DP  RH WIND       PRES   REMARKS
PRINCETON      CLOUDY    55  37  50 SW6       29.76S
MORA           SUNNY     52  34  50 W5        29.75F
CAMBRIDGE      SUNNY     52  37  58 W5        29.74S
RUSH CITY      SUNNY     48  36  61 W5        29.75S
MOOSE LAKE     SUNNY     52  30  43 W9        29.69S
HINCKLEY       FAIR      52  36  54 W9        29.73S
CLOQUET        SUNNY     50  28  43 W13G18    29.67S
MCGREGOR       SUNNY     48  32  53 W10       29.72R
$$
MNZ071>073-080-081-089-090-097-098-181900-
   Southwest Minnesota

CITY           SKY/WX    TMP DP  RH WIND       PRES   REMARKS
MONTEVIDEO     SUNNY     54  48  82 W3        29.81R
GRANITE FALLS  SUNNY     51  41  68 W3        29.82S
CANBY          SUNNY     57  37  48 CALM      29.80S
MARSHALL       SUNNY     52  37  56 CALM      29.81S
REDWOOD FALLS  SUNNY     50  35  56 VRB3      29.80S
OLIVIA         MOSUNNY   50  39  66 NW5       29.79S
PIPESTONE      SUNNY     50  37  62 CALM      29.79F
WINDOM         SUNNY     52  39  62 NW6       29.81S
WORTHINGTON    SUNNY     52  39  61 CALM      29.82S
JACKSON        SUNNY     50  36  57 CALM      29.82R
TRACY          SUNNY     52  40  63 N3        29.81F
SLAYTON        SUNNY     53  38  57 CALM      29.81F
$$
MNZ065>067-074>077-082>085-091>093-181900-
   South Central Minnesota

CITY           SKY/WX    TMP DP  RH WIND       PRES   REMARKS
MANKATO          N/A     49  38  65 VRB5      29.81R
NEW ULM        PTSUNNY   48  37  66 W3        29.81S
ST JAMES       MOSUNNY   48  39  71 NW5       29.82S
FAIRMONT       SUNNY     49  39  68 N7        29.82R
GLENCOE        PTSUNNY   50  41  71 CALM      29.79S
FARIBAULT      SUNNY     48  37  66 W5        29.80R
OWATONNA       MOSUNNY   46  37  71 W3        29.80R
WASECA         MOSUNNY   45  36  70 W5        29.82R
ALBERT LEA     MOSUNNY   48  39  71 W5        29.79S
$$
MNZ078>079-086>088-094>096-181900-
   Southeast Minnesota

CITY           SKY/WX    TMP DP  RH WIND       PRES   REMARKS
ROCHESTER      MOSUNNY   48  39  71 W5        29.79R
6HR MIN TEMP:  35; 6HR MAX TEMP:  48;

RED WING       SUNNY     48  34  57 SW6       29.77R
STANTON        SUNNY     50  38  64 CALM      29.78R
DODGE CENTER   MOSUNNY   46  39  76 W3        29.79R
WINONA         SUNNY     50  36  57 CALM      29.78S
AUSTIN         MOSUNNY   48  37  66 NW3       29.79R
PRESTON        SUNNY     46  36  68 NW3       29.78F
$$
ABBREVIATIONS USED IN REMARKS
   TC - TEMPERATURES IN CELSIUS
  WCI - WIND CHILL INDEX
   HX - HEAT INDEX
  VSB - VISIBILITY
$$




USA.gov is the U.S. government's official web portal to all federal, state and local government web resources and services.